contact:dominique.lefevre@mio.osupytheas.fr, maurice.libes@osupytheas.fr, didier.mallarino@osupytheas.fr
Project:EMSO http://www.emso-fr.org/EMSO-France
Depth: 2436.0 m
Title:EMSO Ligure Ouest : Data MII capteur CSTAR
DateTime,Latitude,Longitude,Instrument_Serial,Reference_Counts,Signal_Counts,Corrected_Signal_raw_counts,Calculated_Beam_c_inverse_meters,Internal_thermistor_counts
DateTime,Latitude,Longitude,Instrument_Serial,Reference_Counts,Signal_Counts,Corrected_Signal_raw_counts,Calculated_Beam_c_inverse_meters,Internal_thermistor_counts
2021-07-30T00:00:45,42.805,6.029,CST-1368DR,5345,7392,14829,0.207,551
2021-07-30T00:03:46,42.805,6.029,CST-1368DR,5345,7392,14829,0.207,551
2021-07-30T00:06:48,42.805,6.029,CST-1368DR,5345,7390,14825,0.208,551
2021-07-30T00:09:49,42.805,6.029,CST-1368DR,5345,7393,14831,0.206,551
2021-07-30T00:12:51,42.805,6.029,CST-1368DR,5345,7392,14830,0.207,551
2021-07-30T00:15:53,42.805,6.029,CST-1368DR,5345,7392,14829,0.207,551
2021-07-30T00:18:54,42.805,6.029,CST-1368DR,5345,7392,14829,0.207,551
2021-07-30T00:21:56,42.805,6.029,CST-1368DR,5345,7391,14828,0.207,551
2021-07-30T00:24:57,42.805,6.029,CST-1368DR,5345,7393,14830,0.207,551
2021-07-30T00:27:59,42.805,6.029,CST-1368DR,5345,7393,14831,0.206,551
2021-07-30T00:31:00,42.805,6.029,CST-1368DR,5345,7393,14832,0.206,551
2021-07-30T00:34:02,42.805,6.029,CST-1368DR,5345,7392,14830,0.207,551
2021-07-30T00:37:04,42.805,6.029,CST-1368DR,5345,7392,14828,0.207,551
2021-07-30T00:40:05,42.805,6.029,CST-1368DR,5345,7389,14824,0.208,551
2021-07-30T00:43:07,42.805,6.029,CST-1368DR,5345,7393,14831,0.206,551
2021-07-30T00:46:08,42.805,6.029,CST-1368DR,5345,7393,14831,0.206,551
2021-07-30T00:49:10,42.805,6.029,CST-1368DR,5345,7391,14827,0.207,551
2021-07-30T00:52:12,42.805,6.029,CST-1368DR,5345,7393,14830,0.207,551
2021-07-30T00:55:13,42.805,6.029,CST-1368DR,5345,7391,14827,0.207,551
2021-07-30T00:58:15,42.805,6.029,CST-1368DR,5345,7393,14831,0.206,551
2021-07-30T01:01:16,42.805,6.029,CST-1368DR,5345,7393,14831,0.206,551
2021-07-30T01:04:18,42.805,6.029,CST-1368DR,5345,7391,14828,0.207,551
2021-07-30T01:07:19,42.805,6.029,CST-1368DR,5345,7393,14830,0.207,551
2021-07-30T01:10:21,42.805,6.029,CST-1368DR,5345,7393,14831,0.206,551
2021-07-30T01:13:23,42.805,6.029,CST-1368DR,5345,7394,14833,0.206,551
2021-07-30T01:16:24,42.805,6.029,CST-1368DR,5345,7392,14830,0.207,551
2021-07-30T01:19:26,42.805,6.029,CST-1368DR,5345,7393,14830,0.207,551
2021-07-30T01:22:27,42.805,6.029,CST-1368DR,5345,7392,14829,0.207,551
2021-07-30T01:25:29,42.805,6.029,CST-1368DR,5345,7393,14831,0.206,551
2021-07-30T01:28:31,42.805,6.029,CST-1368DR,5345,7390,14825,0.208,551
2021-07-30T01:31:32,42.805,6.029,CST-1368DR,5345,7393,14831,0.206,551
2021-07-30T01:34:34,42.805,6.029,CST-1368DR,5345,7393,14831,0.206,551
2021-07-30T01:37:35,42.805,6.029,CST-1368DR,5345,7391,14827,0.207,551
2021-07-30T01:40:37,42.805,6.029,CST-1368DR,5345,7391,14827,0.207,551
2021-07-30T01:43:38,42.805,6.029,CST-1368DR,5345,7390,14825,0.208,551
2021-07-30T01:46:40,42.805,6.029,CST-1368DR,5345,7390,14824,0.208,551
2021-07-30T01:49:42,42.805,6.029,CST-1368DR,5345,7392,14829,0.207,551
2021-07-30T01:52:43,42.805,6.029,CST-1368DR,5345,7391,14827,0.207,551
2021-07-30T01:55:45,42.805,6.029,CST-1368DR,5345,7391,14827,0.207,551
2021-07-30T01:58:46,42.805,6.029,CST-1368DR,5345,7392,14829,0.207,551
2021-07-30T02:01:48,42.805,6.029,CST-1368DR,5345,7391,14828,0.207,551
2021-07-30T02:04:50,42.805,6.029,CST-1368DR,5345,7392,14828,0.207,551
2021-07-30T02:07:51,42.805,6.029,CST-1368DR,5345,7391,14827,0.207,551
2021-07-30T02:10:53,42.805,6.029,CST-1368DR,5345,7392,14828,0.207,551
2021-07-30T02:13:54,42.805,6.029,CST-1368DR,5345,7391,14827,0.207,551
2021-07-30T02:16:56,42.805,6.029,CST-1368DR,5345,7391,14827,0.207,551
2021-07-30T02:19:57,42.805,6.029,CST-1368DR,5345,7390,14825,0.208,551
2021-07-30T02:22:59,42.805,6.029,CST-1368DR,5345,7392,14829,0.207,551
2021-07-30T02:26:01,42.805,6.029,CST-1368DR,5345,7392,14828,0.207,551
2021-07-30T02:29:02,42.805,6.029,CST-1368DR,5345,7389,14822,0.209,551
2021-07-30T02:32:04,42.805,6.029,CST-1368DR,5345,7392,14829,0.207,551
2021-07-30T02:35:05,42.805,6.029,CST-1368DR,5345,7389,14823,0.208,551
2021-07-30T02:38:07,42.805,6.029,CST-1368DR,5345,7392,14828,0.207,551
2021-07-30T02:41:08,42.805,6.029,CST-1368DR,5345,7391,14828,0.207,551
2021-07-30T02:44:10,42.805,6.029,CST-1368DR,5345,7391,14827,0.207,551
2021-07-30T02:47:12,42.805,6.029,CST-1368DR,5345,7391,14827,0.207,551
2021-07-30T02:50:13,42.805,6.029,CST-1368DR,5345,7392,14828,0.207,551
2021-07-30T02:53:15,42.805,6.029,CST-1368DR,5345,7391,14827,0.207,551
2021-07-30T02:56:16,42.805,6.029,CST-1368DR,5345,7392,14829,0.207,551
2021-07-30T02:59:18,42.805,6.029,CST-1368DR,5345,7389,14823,0.208,551
2021-07-30T03:02:20,42.805,6.029,CST-1368DR,5345,7392,14830,0.207,551
2021-07-30T03:05:21,42.805,6.029,CST-1368DR,5345,7391,14828,0.207,551
2021-07-30T03:08:23,42.805,6.029,CST-1368DR,5345,7391,14828,0.207,551
2021-07-30T03:11:24,42.805,6.029,CST-1368DR,5345,7391,14827,0.207,551
2021-07-30T03:14:26,42.805,6.029,CST-1368DR,5345,7391,14828,0.207,551
2021-07-30T03:17:27,42.805,6.029,CST-1368DR,5345,7392,14828,0.207,551
2021-07-30T03:20:29,42.805,6.029,CST-1368DR,5345,7392,14828,0.207,551
2021-07-30T03:23:31,42.805,6.029,CST-1368DR,5345,7392,14828,0.207,551
2021-07-30T03:26:32,42.805,6.029,CST-1368DR,5345,7390,14825,0.208,551
2021-07-30T03:29:34,42.805,6.029,CST-1368DR,5345,7390,14825,0.208,551
2021-07-30T03:32:35,42.805,6.029,CST-1368DR,5345,7391,14827,0.207,551
2021-07-30T03:35:37,42.805,6.029,CST-1368DR,5345,7391,14827,0.207,551
2021-07-30T03:38:38,42.805,6.029,CST-1368DR,5345,7390,14825,0.208,551
2021-07-30T03:41:40,42.805,6.029,CST-1368DR,5345,7391,14827,0.207,551
2021-07-30T03:44:42,42.805,6.029,CST-1368DR,5345,7391,14827,0.207,551
2021-07-30T03:47:43,42.805,6.029,CST-1368DR,5345,7390,14825,0.208,551
2021-07-30T03:50:45,42.805,6.029,CST-1368DR,5345,7392,14828,0.207,551
2021-07-30T03:53:46,42.805,6.029,CST-1368DR,5345,7392,14828,0.207,551
2021-07-30T03:56:48,42.805,6.029,CST-1368DR,5345,7389,14824,0.208,551
2021-07-30T03:59:50,42.805,6.029,CST-1368DR,5345,7391,14827,0.207,551
2021-07-30T04:02:51,42.805,6.029,CST-1368DR,5345,7391,14827,0.207,551
2021-07-30T04:05:53,42.805,6.029,CST-1368DR,5345,7385,14815,0.211,551
2021-07-30T04:08:54,42.805,6.029,CST-1368DR,5345,7392,14828,0.207,551
2021-07-30T04:11:56,42.805,6.029,CST-1368DR,5345,7392,14829,0.207,551
2021-07-30T04:14:57,42.805,6.029,CST-1368DR,5345,7390,14824,0.208,551
2021-07-30T04:17:59,42.805,6.029,CST-1368DR,5345,7390,14826,0.208,551
2021-07-30T04:21:01,42.805,6.029,CST-1368DR,5345,7390,14824,0.208,551
2021-07-30T04:24:02,42.805,6.029,CST-1368DR,5345,7391,14827,0.207,551
2021-07-30T04:27:04,42.805,6.029,CST-1368DR,5345,7390,14825,0.208,551
2021-07-30T04:30:05,42.805,6.029,CST-1368DR,5345,7389,14823,0.208,550
2021-07-30T04:33:07,42.805,6.029,CST-1368DR,5345,7390,14826,0.208,551
2021-07-30T04:36:09,42.805,6.029,CST-1368DR,5345,7391,14827,0.207,551
2021-07-30T04:39:10,42.805,6.029,CST-1368DR,5345,7391,14828,0.207,551
2021-07-30T04:42:12,42.805,6.029,CST-1368DR,5345,7392,14829,0.207,551
2021-07-30T04:45:13,42.805,6.029,CST-1368DR,5345,7391,14827,0.207,551
2021-07-30T04:48:15,42.805,6.029,CST-1368DR,5345,7389,14824,0.208,551
2021-07-30T04:51:16,42.805,6.029,CST-1368DR,5345,7392,14829,0.207,551
2021-07-30T04:54:18,42.805,6.029,CST-1368DR,5345,7392,14829,0.207,551
2021-07-30T04:57:20,42.805,6.029,CST-1368DR,5345,7390,14826,0.208,551
2021-07-30T05:00:21,42.805,6.029,CST-1368DR,5345,7390,14826,0.208,551
2021-07-30T05:03:23,42.805,6.029,CST-1368DR,5345,7392,14829,0.207,551
2021-07-30T05:06:24,42.805,6.029,CST-1368DR,5345,7392,14829,0.207,551
2021-07-30T05:09:26,42.805,6.029,CST-1368DR,5345,7392,14828,0.207,551
2021-07-30T05:12:27,42.805,6.029,CST-1368DR,5345,7391,14827,0.207,551
2021-07-30T05:15:29,42.805,6.029,CST-1368DR,5345,7391,14827,0.207,551
2021-07-30T05:18:31,42.805,6.029,CST-1368DR,5345,7392,14829,0.207,551
2021-07-30T05:21:32,42.805,6.029,CST-1368DR,5345,7392,14830,0.207,551
2021-07-30T05:24:34,42.805,6.029,CST-1368DR,5345,7391,14827,0.207,551
2021-07-30T05:27:35,42.805,6.029,CST-1368DR,5345,7391,14828,0.207,551
2021-07-30T05:30:37,42.805,6.029,CST-1368DR,5345,7391,14827,0.207,551
2021-07-30T05:33:39,42.805,6.029,CST-1368DR,5345,7391,14828,0.207,551
2021-07-30T05:36:40,42.805,6.029,CST-1368DR,5345,7392,14828,0.207,551
2021-07-30T05:39:42,42.805,6.029,CST-1368DR,5345,7391,14827,0.207,551
2021-07-30T05:42:43,42.805,6.029,CST-1368DR,5345,7391,14827,0.207,550
2021-07-30T05:45:45,42.805,6.029,CST-1368DR,5345,7391,14828,0.207,551
2021-07-30T05:48:46,42.805,6.029,CST-1368DR,5345,7391,14827,0.207,551
2021-07-30T05:51:48,42.805,6.029,CST-1368DR,5345,7390,14825,0.208,551
2021-07-30T05:54:50,42.805,6.029,CST-1368DR,5345,7390,14826,0.208,551
2021-07-30T05:57:51,42.805,6.029,CST-1368DR,5345,7391,14828,0.207,551
2021-07-30T06:00:53,42.805,6.029,CST-1368DR,5345,7390,14826,0.208,551
2021-07-30T06:03:54,42.805,6.029,CST-1368DR,5345,7391,14827,0.207,551
2021-07-30T06:06:56,42.805,6.029,CST-1368DR,5345,7389,14824,0.208,551
2021-07-30T06:09:58,42.805,6.029,CST-1368DR,5345,7390,14826,0.208,551
2021-07-30T06:12:59,42.805,6.029,CST-1368DR,5345,7391,14827,0.207,551
2021-07-30T06:16:01,42.805,6.029,CST-1368DR,5345,7391,14827,0.207,551
2021-07-30T06:19:02,42.805,6.029,CST-1368DR,5345,7391,14827,0.207,551
2021-07-30T06:22:04,42.805,6.029,CST-1368DR,5345,7389,14824,0.208,551
2021-07-30T06:25:05,42.805,6.029,CST-1368DR,5345,7390,14825,0.208,551
2021-07-30T06:28:07,42.805,6.029,CST-1368DR,5345,7392,14830,0.207,551
2021-07-30T06:31:09,42.805,6.029,CST-1368DR,5345,7390,14826,0.208,551
2021-07-30T06:34:10,42.805,6.029,CST-1368DR,5345,7389,14823,0.208,551
2021-07-30T06:37:12,42.805,6.029,CST-1368DR,5345,7390,14826,0.208,551
2021-07-30T06:40:13,42.805,6.029,CST-1368DR,5345,7390,14825,0.208,551
2021-07-30T06:43:15,42.805,6.029,CST-1368DR,5345,7390,14825,0.208,551
2021-07-30T06:46:16,42.805,6.029,CST-1368DR,5345,7390,14825,0.208,551
2021-07-30T06:49:18,42.805,6.029,CST-1368DR,5345,7390,14824,0.208,551
2021-07-30T06:52:20,42.805,6.029,CST-1368DR,5345,7389,14822,0.209,551
2021-07-30T06:55:21,42.805,6.029,CST-1368DR,5345,7390,14825,0.208,551
2021-07-30T06:58:23,42.805,6.029,CST-1368DR,5345,7390,14825,0.208,551
2021-07-30T07:01:24,42.805,6.029,CST-1368DR,5345,7389,14824,0.208,551
2021-07-30T07:04:26,42.805,6.029,CST-1368DR,5345,7390,14824,0.208,551
2021-07-30T07:07:28,42.805,6.029,CST-1368DR,5345,7389,14822,0.209,551
2021-07-30T07:10:29,42.805,6.029,CST-1368DR,5344,7389,14826,0.208,551
2021-07-30T07:13:31,42.805,6.029,CST-1368DR,5344,7390,14827,0.207,551
2021-07-30T07:16:32,42.805,6.029,CST-1368DR,5345,7389,14824,0.208,551
2021-07-30T07:19:34,42.805,6.029,CST-1368DR,5345,7388,14822,0.209,551
2021-07-30T07:22:35,42.805,6.029,CST-1368DR,5345,7390,14824,0.208,551
2021-07-30T07:25:37,42.805,6.029,CST-1368DR,5345,7390,14824,0.208,551
2021-07-30T07:28:39,42.805,6.029,CST-1368DR,5345,7390,14824,0.208,551
2021-07-30T07:31:40,42.805,6.029,CST-1368DR,5344,7389,14826,0.208,551
2021-07-30T07:34:42,42.805,6.029,CST-1368DR,5344,7390,14827,0.207,551
2021-07-30T07:37:43,42.805,6.029,CST-1368DR,5345,7390,14825,0.208,551
2021-07-30T07:40:45,42.805,6.029,CST-1368DR,5345,7390,14825,0.208,551
2021-07-30T07:43:47,42.805,6.029,CST-1368DR,5345,7387,14818,0.210,551
2021-07-30T07:46:48,42.805,6.029,CST-1368DR,5345,7390,14824,0.208,551
2021-07-30T07:49:50,42.805,6.029,CST-1368DR,5344,7389,14826,0.208,551
2021-07-30T07:52:51,42.805,6.029,CST-1368DR,5344,7388,14824,0.208,551
2021-07-30T07:55:53,42.805,6.029,CST-1368DR,5344,7387,14822,0.209,551
2021-07-30T07:58:54,42.805,6.029,CST-1368DR,5344,7388,14823,0.208,551
2021-07-30T08:01:56,42.805,6.029,CST-1368DR,5344,7389,14825,0.208,551
2021-07-30T08:04:58,42.805,6.029,CST-1368DR,5344,7389,14826,0.208,551
2021-07-30T08:07:59,42.805,6.029,CST-1368DR,5344,7389,14825,0.208,551
2021-07-30T08:11:01,42.805,6.029,CST-1368DR,5344,7389,14826,0.208,551
2021-07-30T08:14:02,42.805,6.029,CST-1368DR,5344,7390,14827,0.207,551
2021-07-30T08:17:04,42.805,6.029,CST-1368DR,5344,7390,14827,0.207,551
2021-07-30T08:20:05,42.805,6.029,CST-1368DR,5344,7389,14826,0.208,551
2021-07-30T08:23:07,42.805,6.029,CST-1368DR,5344,7388,14823,0.208,551
2021-07-30T08:26:09,42.805,6.029,CST-1368DR,5345,7389,14823,0.208,551
2021-07-30T08:29:10,42.805,6.029,CST-1368DR,5344,7390,14827,0.207,551
2021-07-30T08:32:12,42.805,6.029,CST-1368DR,5344,7389,14826,0.208,551
2021-07-30T08:35:13,42.805,6.029,CST-1368DR,5344,7389,14826,0.208,551
2021-07-30T08:38:15,42.805,6.029,CST-1368DR,5344,7389,14825,0.208,550
2021-07-30T08:41:17,42.805,6.029,CST-1368DR,5344,7388,14824,0.208,551
2021-07-30T08:44:18,42.805,6.029,CST-1368DR,5344,7386,14819,0.210,550
2021-07-30T08:47:20,42.805,6.029,CST-1368DR,5344,7388,14824,0.208,551
2021-07-30T08:50:21,42.805,6.029,CST-1368DR,5344,7387,14821,0.209,551
2021-07-30T08:53:23,42.805,6.029,CST-1368DR,5344,7389,14826,0.208,551
2021-07-30T08:56:24,42.805,6.029,CST-1368DR,5344,7388,14823,0.208,551
2021-07-30T08:59:26,42.805,6.029,CST-1368DR,5344,7389,14825,0.208,551
2021-07-30T09:02:28,42.805,6.029,CST-1368DR,5344,7389,14825,0.208,551
2021-07-30T09:05:29,42.805,6.029,CST-1368DR,5344,7388,14823,0.208,551
2021-07-30T09:08:31,42.805,6.029,CST-1368DR,5344,7389,14825,0.208,551
2021-07-30T09:11:32,42.805,6.029,CST-1368DR,5344,7389,14826,0.208,551
2021-07-30T09:14:34,42.805,6.029,CST-1368DR,5344,7389,14826,0.208,551
2021-07-30T09:17:35,42.805,6.029,CST-1368DR,5344,7390,14827,0.207,551
2021-07-30T09:20:37,42.805,6.029,CST-1368DR,5344,7389,14825,0.208,551
2021-07-30T09:23:39,42.805,6.029,CST-1368DR,5344,7386,14820,0.209,551
2021-07-30T09:26:40,42.805,6.029,CST-1368DR,5344,7389,14826,0.208,551
2021-07-30T09:29:42,42.805,6.029,CST-1368DR,5344,7386,14820,0.209,551
2021-07-30T09:32:43,42.805,6.029,CST-1368DR,5344,7389,14826,0.208,551
2021-07-30T09:35:45,42.805,6.029,CST-1368DR,5344,7387,14821,0.209,551
2021-07-30T09:38:47,42.805,6.029,CST-1368DR,5344,7389,14825,0.208,551
2021-07-30T09:41:48,42.805,6.029,CST-1368DR,5344,7388,14824,0.208,551
2021-07-30T09:44:50,42.805,6.029,CST-1368DR,5344,7387,14821,0.209,551
2021-07-30T09:47:51,42.805,6.029,CST-1368DR,5344,7388,14824,0.208,551
2021-07-30T09:50:53,42.805,6.029,CST-1368DR,5344,7386,14820,0.209,551
2021-07-30T09:53:54,42.805,6.029,CST-1368DR,5344,7388,14824,0.208,551
2021-07-30T09:56:56,42.805,6.029,CST-1368DR,5344,7389,14825,0.208,551
2021-07-30T09:59:58,42.805,6.029,CST-1368DR,5344,7390,14827,0.207,551
2021-07-30T10:02:59,42.805,6.029,CST-1368DR,5344,7388,14824,0.208,551
2021-07-30T10:06:01,42.805,6.029,CST-1368DR,5344,7388,14824,0.208,551
2021-07-30T10:09:02,42.805,6.029,CST-1368DR,5344,7388,14823,0.208,551
2021-07-30T10:12:04,42.805,6.029,CST-1368DR,5344,7389,14825,0.208,551
2021-07-30T10:15:06,42.805,6.029,CST-1368DR,5344,7389,14826,0.208,551
2021-07-30T10:18:07,42.805,6.029,CST-1368DR,5344,7389,14825,0.208,551
2021-07-30T10:21:09,42.805,6.029,CST-1368DR,5344,7388,14823,0.208,551
2021-07-30T10:24:10,42.805,6.029,CST-1368DR,5344,7388,14823,0.208,551
2021-07-30T10:27:12,42.805,6.029,CST-1368DR,5344,7388,14823,0.208,551
2021-07-30T10:30:13,42.805,6.029,CST-1368DR,5344,7388,14823,0.208,551
2021-07-30T10:33:15,42.805,6.029,CST-1368DR,5344,7389,14825,0.208,551
2021-07-30T10:36:17,42.805,6.029,CST-1368DR,5344,7389,14826,0.208,551
2021-07-30T10:39:18,42.805,6.029,CST-1368DR,5344,7387,14822,0.209,551
2021-07-30T10:42:20,42.805,6.029,CST-1368DR,5344,7384,14816,0.210,551
2021-07-30T10:45:21,42.805,6.029,CST-1368DR,5344,7389,14825,0.208,551
2021-07-30T10:48:23,42.805,6.029,CST-1368DR,5344,7388,14824,0.208,551
2021-07-30T10:51:24,42.805,6.029,CST-1368DR,5344,7389,14825,0.208,551
2021-07-30T10:54:26,42.805,6.029,CST-1368DR,5344,7387,14822,0.209,551
2021-07-30T10:57:28,42.805,6.029,CST-1368DR,5344,7389,14825,0.208,551
2021-07-30T11:00:29,42.805,6.029,CST-1368DR,5344,7389,14825,0.208,551
2021-07-30T11:03:31,42.805,6.029,CST-1368DR,5344,7387,14822,0.209,551
2021-07-30T11:06:32,42.805,6.029,CST-1368DR,5344,7388,14824,0.208,551
2021-07-30T11:09:34,42.805,6.029,CST-1368DR,5344,7388,14823,0.208,551
2021-07-30T11:12:36,42.805,6.029,CST-1368DR,5344,7387,14822,0.209,551
2021-07-30T11:15:37,42.805,6.029,CST-1368DR,5344,7387,14822,0.209,551
2021-07-30T11:18:39,42.805,6.029,CST-1368DR,5344,7386,14820,0.209,551
2021-07-30T11:21:40,42.805,6.029,CST-1368DR,5344,7389,14825,0.208,551
2021-07-30T11:24:42,42.805,6.029,CST-1368DR,5344,7389,14825,0.208,551
2021-07-30T11:27:43,42.805,6.029,CST-1368DR,5344,7388,14824,0.208,551
2021-07-30T11:30:45,42.805,6.029,CST-1368DR,5344,7389,14825,0.208,551
2021-07-30T11:33:47,42.805,6.029,CST-1368DR,5344,7389,14826,0.208,551
2021-07-30T11:36:48,42.805,6.029,CST-1368DR,5344,7386,14819,0.210,551
2021-07-30T11:39:50,42.805,6.029,CST-1368DR,5344,7387,14821,0.209,550
2021-07-30T11:42:51,42.805,6.029,CST-1368DR,5344,7387,14822,0.209,551
2021-07-30T11:45:53,42.805,6.029,CST-1368DR,5344,7387,14821,0.209,551
2021-07-30T11:48:55,42.805,6.029,CST-1368DR,5344,7388,14823,0.208,551
2021-07-30T11:51:56,42.805,6.029,CST-1368DR,5344,7389,14826,0.208,551
2021-07-30T11:54:58,42.805,6.029,CST-1368DR,5344,7387,14821,0.209,551
2021-07-30T11:57:59,42.805,6.029,CST-1368DR,5344,7385,14817,0.210,551
2021-07-30T12:01:01,42.805,6.029,CST-1368DR,5344,7388,14823,0.208,551
2021-07-30T12:04:02,42.805,6.029,CST-1368DR,5344,7386,14819,0.210,551
2021-07-30T12:07:04,42.805,6.029,CST-1368DR,5344,7388,14823,0.208,551
2021-07-30T12:10:06,42.805,6.029,CST-1368DR,5344,7389,14825,0.208,551
2021-07-30T12:13:07,42.805,6.029,CST-1368DR,5344,7389,14825,0.208,551
2021-07-30T12:16:09,42.805,6.029,CST-1368DR,5344,7388,14823,0.208,551
2021-07-30T12:19:10,42.805,6.029,CST-1368DR,5344,7388,14824,0.208,551
2021-07-30T12:22:12,42.805,6.029,CST-1368DR,5344,7388,14823,0.208,551
2021-07-30T12:25:13,42.805,6.029,CST-1368DR,5344,7386,14820,0.209,551
2021-07-30T12:28:15,42.805,6.029,CST-1368DR,5344,7389,14825,0.208,551
2021-07-30T12:31:17,42.805,6.029,CST-1368DR,5344,7387,14822,0.209,551
2021-07-30T12:34:18,42.805,6.029,CST-1368DR,5344,7388,14824,0.208,551
2021-07-30T12:37:20,42.805,6.029,CST-1368DR,5344,7385,14817,0.210,551
2021-07-30T12:40:21,42.805,6.029,CST-1368DR,5344,7387,14821,0.209,551
2021-07-30T12:43:23,42.805,6.029,CST-1368DR,5344,7389,14825,0.208,551
2021-07-30T12:46:25,42.805,6.029,CST-1368DR,5344,7389,14825,0.208,551
2021-07-30T12:49:26,42.805,6.029,CST-1368DR,5344,7384,14816,0.210,551
2021-07-30T12:52:28,42.805,6.029,CST-1368DR,5344,7388,14823,0.208,551
2021-07-30T12:55:29,42.805,6.029,CST-1368DR,5344,7389,14825,0.208,551
2021-07-30T12:58:31,42.805,6.029,CST-1368DR,5344,7389,14825,0.208,551
2021-07-30T13:01:32,42.805,6.029,CST-1368DR,5344,7388,14824,0.208,551
2021-07-30T13:04:34,42.805,6.029,CST-1368DR,5344,7387,14821,0.209,551
2021-07-30T13:07:36,42.805,6.029,CST-1368DR,5344,7385,14818,0.210,551
2021-07-30T13:10:37,42.805,6.029,CST-1368DR,5344,7387,14821,0.209,551
2021-07-30T13:13:39,42.805,6.029,CST-1368DR,5344,7386,14819,0.210,551
2021-07-30T13:16:40,42.805,6.029,CST-1368DR,5344,7387,14821,0.209,551
2021-07-30T13:19:42,42.805,6.029,CST-1368DR,5344,7386,14820,0.209,551
2021-07-30T13:22:43,42.805,6.029,CST-1368DR,5344,7387,14822,0.209,551
2021-07-30T13:25:45,42.805,6.029,CST-1368DR,5344,7388,14824,0.208,551
2021-07-30T13:28:47,42.805,6.029,CST-1368DR,5344,7386,14820,0.209,551
2021-07-30T13:31:48,42.805,6.029,CST-1368DR,5344,7385,14817,0.210,551
2021-07-30T13:34:50,42.805,6.029,CST-1368DR,5344,7387,14821,0.209,551
2021-07-30T13:37:51,42.805,6.029,CST-1368DR,5344,7388,14823,0.208,551
2021-07-30T13:40:53,42.805,6.029,CST-1368DR,5344,7388,14823,0.208,551
2021-07-30T13:43:55,42.805,6.029,CST-1368DR,5344,7387,14821,0.209,551
2021-07-30T13:46:56,42.805,6.029,CST-1368DR,5344,7388,14823,0.208,551
2021-07-30T13:49:58,42.805,6.029,CST-1368DR,5344,7388,14823,0.208,551
2021-07-30T13:52:59,42.805,6.029,CST-1368DR,5344,7388,14823,0.208,551
2021-07-30T13:56:01,42.805,6.029,CST-1368DR,5344,7387,14822,0.209,551
2021-07-30T13:59:02,42.805,6.029,CST-1368DR,5344,7388,14823,0.208,550
2021-07-30T14:02:04,42.805,6.029,CST-1368DR,5344,7388,14823,0.208,551
2021-07-30T14:05:06,42.805,6.029,CST-1368DR,5344,7387,14821,0.209,551
2021-07-30T14:08:07,42.805,6.029,CST-1368DR,5344,7388,14823,0.208,551
2021-07-30T14:11:09,42.805,6.029,CST-1368DR,5344,7387,14821,0.209,551
2021-07-30T14:14:10,42.805,6.029,CST-1368DR,5344,7386,14819,0.210,550
2021-07-30T14:17:12,42.805,6.029,CST-1368DR,5344,7386,14820,0.209,551
2021-07-30T14:20:14,42.805,6.029,CST-1368DR,5344,7388,14823,0.208,551
2021-07-30T14:23:15,42.805,6.029,CST-1368DR,5343,7387,14824,0.208,551
2021-07-30T14:26:17,42.805,6.029,CST-1368DR,5343,7387,14825,0.208,551
2021-07-30T14:29:18,42.805,6.029,CST-1368DR,5344,7387,14821,0.209,551
2021-07-30T14:32:20,42.805,6.029,CST-1368DR,5343,7386,14821,0.209,551
2021-07-30T14:35:21,42.805,6.029,CST-1368DR,5343,7387,14824,0.208,551
2021-07-30T14:38:23,42.805,6.029,CST-1368DR,5343,7387,14825,0.208,551
2021-07-30T14:41:25,42.805,6.029,CST-1368DR,5343,7388,14827,0.207,551
2021-07-30T14:44:26,42.805,6.029,CST-1368DR,5343,7388,14827,0.207,551
2021-07-30T14:47:28,42.805,6.029,CST-1368DR,5343,7387,14825,0.208,551
2021-07-30T14:50:29,42.805,6.029,CST-1368DR,5344,7388,14824,0.208,551
2021-07-30T14:53:31,42.805,6.029,CST-1368DR,5343,7389,14828,0.207,551
2021-07-30T14:56:32,42.805,6.029,CST-1368DR,5344,7388,14824,0.208,551
2021-07-30T14:59:34,42.805,6.029,CST-1368DR,5343,7388,14827,0.207,551
2021-07-30T15:02:36,42.805,6.029,CST-1368DR,5344,7389,14825,0.208,551
2021-07-30T15:05:37,42.805,6.029,CST-1368DR,5343,7388,14826,0.208,551
2021-07-30T15:08:39,42.805,6.029,CST-1368DR,5343,7386,14822,0.209,551
2021-07-30T15:11:40,42.805,6.029,CST-1368DR,5343,7386,14823,0.208,551
2021-07-30T15:14:42,42.805,6.029,CST-1368DR,5343,7388,14827,0.207,551
2021-07-30T15:17:44,42.805,6.029,CST-1368DR,5343,7387,14824,0.208,551
2021-07-30T15:20:45,42.805,6.029,CST-1368DR,5343,7385,14821,0.209,551
2021-07-30T15:23:47,42.805,6.029,CST-1368DR,5343,7386,14823,0.208,551
2021-07-30T15:26:48,42.805,6.029,CST-1368DR,5343,7388,14826,0.208,551
2021-07-30T15:29:50,42.805,6.029,CST-1368DR,5343,7386,14821,0.209,551
2021-07-30T15:32:51,42.805,6.029,CST-1368DR,5343,7387,14825,0.208,551
2021-07-30T15:35:53,42.805,6.029,CST-1368DR,5343,7386,14823,0.208,551
2021-07-30T15:38:55,42.805,6.029,CST-1368DR,5343,7387,14825,0.208,551
2021-07-30T15:41:56,42.805,6.029,CST-1368DR,5343,7388,14826,0.208,551
2021-07-30T15:44:58,42.805,6.029,CST-1368DR,5343,7385,14821,0.209,551
2021-07-30T15:47:59,42.805,6.029,CST-1368DR,5343,7388,14826,0.208,551
2021-07-30T15:51:01,42.805,6.029,CST-1368DR,5343,7388,14826,0.208,551
2021-07-30T15:54:03,42.805,6.029,CST-1368DR,5343,7385,14820,0.209,551
2021-07-30T15:57:04,42.805,6.029,CST-1368DR,5343,7387,14824,0.208,551
2021-07-30T16:00:06,42.805,6.029,CST-1368DR,5343,7386,14823,0.208,551
2021-07-30T16:03:07,42.805,6.029,CST-1368DR,5343,7387,14824,0.208,551
2021-07-30T16:06:09,42.805,6.029,CST-1368DR,5343,7385,14821,0.209,551
2021-07-30T16:09:10,42.805,6.029,CST-1368DR,5343,7387,14824,0.208,551
2021-07-30T16:12:12,42.805,6.029,CST-1368DR,5343,7384,14818,0.210,551
2021-07-30T16:15:14,42.805,6.029,CST-1368DR,5343,7386,14823,0.208,551
2021-07-30T16:18:15,42.805,6.029,CST-1368DR,5343,7387,14824,0.208,551
2021-07-30T16:21:17,42.805,6.029,CST-1368DR,5344,7387,14821,0.209,551
2021-07-30T16:24:18,42.805,6.029,CST-1368DR,5343,7388,14826,0.208,551
2021-07-30T16:27:20,42.805,6.029,CST-1368DR,5343,7387,14825,0.208,551
2021-07-30T16:30:21,42.805,6.029,CST-1368DR,5343,7386,14822,0.209,551
2021-07-30T16:33:23,42.805,6.029,CST-1368DR,5343,7387,14824,0.208,551
2021-07-30T16:36:25,42.805,6.029,CST-1368DR,5343,7387,14824,0.208,551
2021-07-30T16:39:26,42.805,6.029,CST-1368DR,5343,7386,14823,0.208,550
2021-07-30T16:42:28,42.805,6.029,CST-1368DR,5343,7385,14821,0.209,551
2021-07-30T16:45:29,42.805,6.029,CST-1368DR,5343,7387,14824,0.208,551
2021-07-30T16:48:31,42.805,6.029,CST-1368DR,5343,7387,14824,0.208,551
2021-07-30T16:51:33,42.805,6.029,CST-1368DR,5343,7387,14825,0.208,551